Regional Weather Roundup
Issued by NWS Charleston, SC

Current Version | Previous Version | Graphics & Text | Print | Product List | Glossary On
Versions: 1 2 3 4 5 6 7 8 9 10 11 12 13 14 15 16 17 18 19 20 21 22 23 24 25 26 27 28 29 30 31 32 33 34 35 36 37 38 39 40 41 42 43 44 45 46 47 48 49 50
000 ASUS42 KCHS 231527 RWRCHS REGIONAL WEATHER ROUNDUP NATIONAL WEATHER SERVICE CHARLESTON SC 1100 AM EDT SAT MAY 23 2015 NOTE: "FAIR" INDICATES FEW OR NO CLOUDS BELOW 12,000 FEET WITH NO SIGNIFICANT WEATHER AND/OR OBSTRUCTIONS TO VISIBILITY. NOT ALL STATIONS ARE QUALITY CONTROLLED BY THE NATIONAL WEATHER SERVICE. USE DATA WITH CAUTION...ESPECIALLY DEWPOINT OBSERVATIONS. SCZ027-030-031-034>040-042>050-231600- ...SOUTHEAST SOUTH CAROLINA... CITY SKY/WX TMP DP RH WIND PRES REMARKS N CHARLESTON MOSUNNY 76 54 46 NE13 30.37S WATERFRONT PAR N/A 73 60 63 NE13 30.34S MOUNT PLEASANT FAIR 75 57 53 E9 30.38R JOHNS ISLAND SUNNY 75 57 53 E14G22 30.38R PINOPOLIS NOT AVBL MONCKS CORNER FAIR 77 54 44 NE7 30.38S SUMMERVILLE FAIR 77 54 44 N8 30.39S BEAUFORT MCAS SUNNY 77 56 48 NE12 30.37S BEAUFORT ARPT FAIR 77 61 57 E12G17 30.37R HILTON HEAD IS MOSUNNY 75 59 57 NE10G18 30.37R WALTERBORO SUNNY 75 50 41 E12 30.39S ALLENDALE FAIR 75 52 43 E8G15 30.38S ...SOUTHERN MIDLANDS AND PEE DEE... CITY SKY/WX TMP DP RH WIND PRES REMARKS GEORGETOWN NOT AVBL KINGSTREE NOT AVBL ORANGEBURG SUNNY 75 51 43 NE8 30.40S BARNWELL FAIR 79 50 36 E13G20 30.40S AIKEN FAIR 75 41 29 NE12G18 30.43S MANNING FAIR 73 39 29 E7G17 30.40S COLUMBIA SUNNY 77 51 40 E8 30.40S SUMTER SUNNY 76 49 37 NE9G18 30.39S FLORENCE SUNNY 76 50 40 E12 30.41S MYRTLE BEACH SUNNY 75 52 43 E13 30.42R N MYRTLE BEACH SUNNY 76 50 40 NE12 30.40R $$ GAZ063-065-086>088-099>101-113>116-118-119-134>141-150-231600- ...SOUTHEAST GEORGIA... CITY SKY/WX TMP DP RH WIND PRES REMARKS SAVANNAH ARPT MOSUNNY 77 58 51 E10 30.36R HUNTER AAF MOSUNNY 77 61 57 E15 30.34R FORT STEWART MOSUNNY 77 60 55 E12 30.33S STATESBORO SUNNY 77 55 47 E9G16 30.38S SYLVANIA SUNNY 78 55 44 E13G18 30.39S CLAXTON FAIR 77 54 44 E12 30.37S ...CSRA...CENTRAL AND FAR SOUTHEAST GEORGIA... CITY SKY/WX TMP DP RH WIND PRES REMARKS THOMSON SUNNY 78 54 42 E9 30.44S AUGUSTA-BUSH SUNNY 77 50 38 E10 30.39S AUGUSTA-DANIEL MOSUNNY 78 50 37 E9 30.40S SWAINSBORO FAIR 79 50 36 E12 30.39S VIDALIA SUNNY 77 52 41 E12G20 30.37S EASTMAN FAIR 79 56 45 E13 30.39S HAZLEHURST FAIR 79 55 44 SE9 30.35R ALMA MOSUNNY 77 59 53 E14G20 30.34S WAYCROSS PTSUNNY 79 63 57 E9G17 30.34R JESUP PTSUNNY 81 64 57 E8 30.35S BAXLEY FAIR 79 55 44 E8 30.35S BRUNSWICK MOSUNNY 79 57 47 NE15 30.35R SAINT SIMONS NOT AVBL $$ SCZ027-028-034-036>038-045-046-048>050-GAZ119-141-231600- ...LAKE AND SUPPLEMENTAL COASTAL OBSERVATIONS... STATION/POSITION TIME TEMP WIND PRES WAVE SWELL AIR SEA DIR/SP/G HT/PER HT/PER/DIR (UTC) (F) (DEG/KT/KT) (MB) (FT/S) (FT/S/D) UPR LAKE MARION NOT AVBL WINYAH BAY 1445 71 50/ 13 1028.0S LAKE MURRAY 1400 71 80/ 4/ 6 1028.8S ACE BASIN NERRS NOT AVBL FORT PULASKI 1500 74 78 60/ 14/ 17 1028.6R SAPELO ISLAND 1500 77 60/ 12 1027.0S $$ ANZ835-935-AMZ111-154-330-350-352-354-370-450-454-472-231600- ...C-MAN AND BUOY OBSERVATIONS... STATION/POSITION TIME TEMP WIND PRES WAVE SWELL AIR SEA DIR/SP/G HT/PER HT/PER/DIR (UTC) (F) (DEG/KT/KT) (MB) (FT/S) (FT/S/D) BUOY 41004 1450 73 75 50/ 17/ 21 1027.2R 4/ 5 2/10 BUOY 41008 1450 74 76 60/ 16/ 19 1027.0R 5/ 6 2/ 90/ 8 FOLLY BEACH CMAN 1500 73 60/ 14/ 16 1028.6R CAPERS NEARSHORE 1408 72 70/ 16/ 21 1028.6R FRIPP NEARSHORE 1400 73 70/ 17/ 21 1026.8S STATION/POSITION TIME TEMP WIND PRES WAVE SWELL AIR SEA DIR/SP/G HT/PER HT/PER/DIR (UTC) (F) (DEG/KT/KT) (MB) (FT/S) (FT/S/D) 5E ST. MARYS GA 1421 77 N/A 5/ 5 FRYING PAN BUOY 1450 73 73 70/ 14/ 16 1029.2S 3/ 4 2/ 90/ 9 BUOY 41025 1450 68 77 20/ 17/ 19 1029.4R 3/ 9 3/ 60/ 9 CAPE LOOKOUT NC 1500 72 50/ 7/ 8 1029.4R BUOY 41002 1450 71 74 50/ 17/ 19 1027.5R 5/ 8 2/ 20/ 8 BUOY 41010 1420 80 81 50/ 12/ 14 1023.8R ST AUGUSTINE FL 1500 76 76 30/ 12/ 13 1026.5R $$

USA.gov is the U.S. government's official web portal to all federal, state and local government web resources and services.